Terminal Aerodrome Forecast
Issued by NWS Riverton, WY

Home | Current Version | Previous Version | Text Only | Print | Product List | Glossary On
Versions: 1 2 3 4 5 6 7 8 9 10 11 12 13 14 15 16 17 18 19 20
000
FTUS45 KRIW 011100
TAFRIW
TAF
KRIW 011140Z 0112/0212 01011KT P6SM VCSH SCT020 OVC035
      TEMPO 0114/0117 -SHRA BKN020
     FM012100 02008KT P6SM VCSH SCT020 BKN040
     FM020200 29007KT P6SM SCT050 BKN100
     FM020600 29007KT P6SM FEW100=

USA.gov is the U.S. government's official web portal to all federal, state and local government web resources and services.